DM0MR Weather Reports


Display with metric or nautical units.
time (UTC)temp
F
wind
direction
speed
MPH
gust
MPH
rain 1hr
in
rain 24hr
in
rain mn
in
humidity
%
barometer
mb
20260506134142 72 135 1.0 3.0 0.00 0.69 0.69 56 994.7
20260506132642 76 144 0.0 2.0 0.00 0.69 0.69 51 994.6
20260506131142 74 140 0.0 3.0 0.00 0.69 0.69 58 994.8
20260506125644 70 141 0.0 3.0 0.00 0.69 0.69 64 994.8
20260506124142 69 140 0.0 1.0 0.00 0.70 0.69 65 995.1
20260506122640 70 143 0.0 4.0 0.00 0.70 0.69 63 995.0
20260506121141 70 135 0.0 3.0 0.00 0.70 0.69 66 995.0
20260506115642 70 135 1.0 3.0 0.00 0.70 0.69 65 995.0
20260506114142 70 151 0.0 3.0 0.00 0.70 0.69 68 994.7
20260506111141 67 137 0.0 3.0 0.00 0.70 0.69 72 994.9
20260506105642 67 181 0.0 2.0 0.00 0.70 0.69 74 995.1
20260506104141 68 137 0.0 3.0 0.00 0.70 0.69 71 995.2
20260506102642 70 147 0.0 3.0 0.00 0.70 0.69 72 995.2
20260506101140 63 135 0.0 2.0 0.00 0.70 0.69 81 995.1
20260506095642 65 135 0.0 1.0 0.00 0.70 0.69 77 995.1
20260506094143 68 135 0.0 3.0 0.00 0.70 0.69 75 994.9
20260506092640 69 173 0.0 2.0 0.00 0.70 0.69 74 994.9
20260506091142 70 148 0.0 3.0 0.00 0.70 0.69 77 994.9
20260506085641 64 136 0.0 1.0 0.00 0.70 0.69 88 994.9
20260506081142 58 225 0.0 0.0 0.00 0.70 0.69 99 994.7
20260506072641 56 215 0.0 3.0 0.02 0.70 0.69 99 994.7
20260506061140 54 0 0.0 0.0 0.03 0.67 0.66 97 994.8
20260506051140 53 171 0.0 2.0 0.00 0.63 0.62 98 994.6
20260506044144 53 135 0.0 0.0 0.00 0.63 0.62 98 994.6
20260506042640 53 0 0.0 0.0 0.00 0.64 0.62 98 994.8
20260506041142 53 0 0.0 0.0 0.00 0.66 0.62 98 994.7
20260506035642 53 0 0.0 0.0 0.00 0.68 0.62 98 994.6
20260506034141 53 0 0.0 0.0 0.00 0.69 0.62 98 994.5
20260506032643 53 0 0.0 0.0 0.00 0.69 0.62 98 994.5
20260506031141 53 140 0.0 0.0 0.00 0.69 0.62 98 994.6
20260506025641 53 155 0.0 1.0 0.00 0.69 0.62 98 994.6
20260506022641 53 134 0.0 3.0 0.01 0.69 0.62 98 994.5
20260506021140 53 139 0.0 3.0 0.02 0.69 0.62 98 994.6
20260506012641 54 154 0.0 4.0 0.07 0.69 0.61 97 994.4
20260506011141 54 167 1.0 4.0 0.10 0.68 0.60 97 994.7
20260506005643 54 136 0.0 2.0 0.14 0.66 0.57 97 995.0
20260506004141 55 139 0.0 2.0 0.23 0.64 0.56 97 994.8
20260506002642 55 156 0.0 1.0 0.23 0.62 0.54 99 994.9
20260506001141 56 139 0.0 2.0 0.20 0.57 0.49 99 994.8
20260505235640 56 135 0.0 3.0 0.15 0.50 0.42 99 995.1
20260505234143 56 135 0.0 2.0 0.07 0.41 0.33 99 995.0
20260505232639 57 162 0.0 2.0 0.08 0.38 0.30 99 995.1
20260505224143 57 168 0.0 3.0 0.11 0.34 0.25 99 995.3
20260505222640 57 188 0.0 4.0 0.09 0.30 0.22 99 995.4
20260505221141 57 248 0.0 6.0 0.09 0.28 0.20 99 995.3
20260505214140 58 193 0.0 6.0 0.08 0.22 0.14 99 995.6
20260505211139 58 198 0.0 6.0 0.08 0.18 0.10 97 995.9
20260505205641 58 183 3.0 7.0 0.07 0.16 0.08 97 996.0
20260505204140 58 182 0.0 4.0 0.05 0.14 0.05 96 996.4
20260505202639 59 154 1.0 3.0 0.04 0.12 0.04 95 996.3
20260505195640 60 135 1.0 3.0 0.00 0.08 0.00 91 996.1
20260505194140 60 139 0.0 3.0 0.00 0.08 0.00 89 995.9
20260505192640 60 148 2.0 6.0 0.00 0.09 0.00 88 995.6
20260505191139 61 220 2.0 8.0 0.00 0.10 0.00 86 995.5
20260505185639 61 274 0.0 14.0 0.00 0.10 0.00 86 995.3
20260505184140 62 261 4.0 10.0 0.00 0.10 0.00 84 995.6
20260505182639 63 174 3.0 4.0 0.00 0.10 0.00 81 995.6
20260505175639 63 184 1.0 3.0 0.00 0.10 0.00 76 996.0
20260505165639 65 182 0.0 3.0 0.00 0.10 0.00 76 996.5
20260505164140 65 192 1.0 5.0 0.00 0.10 0.00 75 996.5
20260505161140 68 188 2.0 6.0 0.00 0.10 0.10 69 996.6
20260505152640 68 203 3.0 6.0 0.00 0.10 0.10 66 996.7